Flag for Sweden Weather past 2 weeks in Borås, Sweden

Now
19 °F

Clear.


Feels Like: 10 °F
Forecast: 12 / 30 °F
Wind: 7 mph from North

Location: Gothenburg / Landvetter

Current Time: Dec 25, 2014 at 6:55:00 PM

Latest Report: Dec 25, 2014 at 6:20 PM


Visibility: 10 mi

Pressure: 30.18 "Hg

Humidity: 86%

Dew point: 16 °F

Location of BoråsLocation

Historic Weather in Borås — Graph

°F

Borås temperature yesterday

Maximum temperature yesterday: 39 °F (at 12:20 AM)
Minimum temperature yesterday: 25 °F (at 11:50 PM)
Average temperature yesterday: 34 °F

Past Weeks' High & Low Weather Summary

 TemperatureHumidityPressure
High45 °F (Dec 18, 2:20 PM)100% (Dec 12, 2:20 PM)30.15 "Hg (Dec 12, 2:20 PM)
Low18 °F (Dec 25, 5:20 PM)60% (Dec 13, 8:50 PM)28.88 "Hg (Dec 12, 6:50 PM)
Average37 °F90%29.43 "Hg
* Reported Dec 10 5:20 PM — Dec 25 5:50 PM, Borås, Weather by CustomWeather, © 2014

Note: Actual official high and low records may vary slightly from our data, if they occured in-between our weather recording intervals... More about our weather records

Advertising

Borås weather history for previous 24 hours

 ConditionsComfort  
Time TempWeatherWind HumidityBarometerVisibility
5:50 PM
Dec 25
19 °FClear.6 mph86%30.15 "Hg10 mi
5:20 PM18 °FClear.8 mph93%30.15 "Hg10 mi
4:20 PM21 °FClear.8 mph80%30.12 "Hg10 mi
3:50 PM21 °FClear.9 mph80%30.12 "Hg10 mi
3:20 PM21 °FSunny.13 mph80%30.09 "Hg10 mi
2:50 PM21 °FSunny.13 mph80%30.09 "Hg10 mi
2:20 PM21 °FSunny.13 mph80%30.07 "Hg10 mi
1:50 PM23 °FSunny.12 mph80%30.07 "Hg10 mi
1:20 PM23 °FSunny.12 mph80%30.04 "Hg10 mi
12:50 PM23 °FSunny.12 mph80%30.04 "Hg10 mi
12:20 PM23 °FSunny.10 mph80%30.01 "Hg10 mi
11:50 AM23 °FSunny.9 mph80%30.01 "Hg10 mi
11:20 AM21 °FSunny.9 mph86%30.01 "Hg10 mi
10:50 AM21 °FSunny.12 mph86%29.98 "Hg10 mi
10:20 AM21 °FSunny.12 mph86%29.98 "Hg10 mi
9:50 AM21 °FSunny.12 mph86%29.95 "Hg10 mi
9:20 AM21 °FSunny.10 mph86%29.95 "Hg10 mi
8:50 AM23 °FPassing clouds.10 mph80%29.92 "HgN/A
8:20 AM23 °FMostly cloudy.10 mph86%29.92 "HgN/A
7:50 AM23 °FPassing clouds.12 mph86%29.89 "HgN/A
7:20 AM25 °FPassing clouds.13 mph80%29.89 "HgN/A
6:50 AM25 °FPassing clouds.10 mph80%29.86 "HgN/A
6:20 AM23 °FPassing clouds.10 mph86%29.86 "HgN/A
5:50 AM23 °FPartly cloudy.10 mph86%29.83 "HgN/A
5:20 AM23 °FPassing clouds.10 mph86%29.83 "HgN/A
4:20 AM25 °FPassing clouds.13 mph80%29.80 "HgN/A
3:50 AM25 °FClear.13 mph80%29.80 "Hg10 mi
3:20 AM23 °FClear.12 mph86%29.80 "Hg10 mi
2:53 AM23 °FClear.12 mph86%29.77 "Hg10 mi
1:50 AM23 °FClear.9 mph86%29.74 "Hg10 mi
1:20 AM25 °FClear.12 mph86%29.74 "Hg10 mi
12:50 AM25 °FClear.10 mph86%29.74 "Hg10 mi
12:20 AM25 °FClear.9 mph86%29.71 "Hg10 mi
11:50 PM
Dec 24
25 °FClear.10 mph86%29.71 "Hg10 mi
11:20 PM27 °FClear.10 mph80%29.68 "Hg10 mi
10:50 PM27 °FClear.13 mph80%29.68 "Hg10 mi
10:20 PM27 °FClear.13 mph80%29.65 "Hg10 mi
9:50 PM27 °FPassing clouds.13 mph80%29.65 "HgN/A
9:20 PM27 °FPassing clouds.12 mph86%29.65 "HgN/A
8:50 PM27 °FMostly cloudy.14 mph86%29.62 "HgN/A
8:20 PM27 °FLight snow. Partly cloudy.12 mph86%29.62 "HgN/A
7:50 PM27 °FLight snow. Mostly cloudy.13 mph93%29.59 "Hg3 mi
7:20 PM28 °FLight snow. Overcast.13 mph86%29.59 "HgN/A
6:50 PM28 °FLight snow. Mostly cloudy.10 mph86%29.56 "HgN/A
6:20 PM28 °FOvercast.13 mph86%29.53 "HgN/A
Weather by CustomWeather, © 2014

See weather overviewHow to use our weather pages